{"data":{"norad_id":41589,"epoch":"2026-09-19T15:05:17.638368Z","epoch_age_seconds":93383,"freshness":"FRESH","line1":"1 41589U 16038B   26262.62867637 -.00000016  00000+0  00000+0 0  9994","line2":"2 41589   0.0417 348.6305 0000205 277.8050 201.4376  1.00272017 37616","mean_motion":1.00272017,"eccentricity":2.05e-5,"inclination_deg":0.0417,"raan_deg":348.6305,"arg_perigee_deg":277.805,"mean_anomaly_deg":201.4376,"bstar":0,"rev_number":3761,"period_min":1436.0935813229,"perigee_km":35785.665547622,"apogee_km":35787.394298966,"semimajor_km":42164.666923294,"source":"CELESTRAK","updated_at":"2026-09-20T09:00:46.836569Z"}}